Regional Weather Roundup
Issued by NWS Goodland, KS

Home | Current Version | Previous Version | Text Only | Print | Product List | Glossary Off
Versions: 1 2 3 4 5 6 7 8 9 10 11 12 13 14 15 16 17 18 19 20 21 22 23 24 25 26 27 28 29 30 31 32 33 34 35 36 37 38 39 40 41 42 43 44 45 46 47 48 49 50

000
ASUS43 KGLD 281608
RWRGLD

GOODLAND FORECAST AREA HOURLY WEATHER ROUNDUP
NATIONAL WEATHER SERVICE GOODLAND KS
1000 AM MDT MON JUL 28 2014

...OFFICIAL OBSERVATIONS...

CITY           SKY/WX    TMP DP  RH WIND       PRES   REMARKS
GOODLAND KS    MOSUNNY   77  59  53 S10       30.34F
HILL CITY KS   SUNNY     75  58  55 SE13      30.34F
IMPERIAL NEB   MOSUNNY   74  56  53 SE18      30.34F
MCCOOK NEB     MOSUNNY   74  58  57 SE13      30.34F
AKRON CO       SUNNY     78  56  46 SE12G20   30.35S
BURLINGTON CO  PTSUNNY   72  57  59 S14       30.36S
LIMON CO       MOSUNNY   73  61  65 S15       30.39S
$$

...UNOFFICIAL OBSERVATIONS...

CITY           SKY/WX    TMP DP  RH WIND       PRES   REMARKS
COLBY KS       SUNNY     79  57  47 SE15G21   30.35S
LENORA KS        N/A     71  32  23 MISG        N/A
NORTON KS      SUNNY     75  54  46 E9        30.35S
OBERLIN KS     FAIR      75  57  53 SE13G20   30.33F
ST FRANCIS KS  SUNNY     81  54  39 S10       30.32S
TRIBUNE KS     CLOUDY    68 N/A N/A S14       30.38
WAKEENEY KS      N/A     76  52  42 MISG        N/A
TRENTON NEB      N/A     74  32  21 E13         N/A
KIT CARSON CO    N/A     73  59  62 N16         N/A
WRAY CO          N/A     79  55  44 E8        30.33
YUMA CO          N/A     79  59  50 S6G13       N/A
$$


USA.gov is the U.S. government's official web portal to all federal, state and local government web resources and services.